{"data":{"norad_id":65504,"epoch":"2026-05-25T01:46:08.836032Z","epoch_age_seconds":62488,"freshness":"FRESH","line1":"1 65504U 25198N   26145.07371338  .00019352  00000+0  58246-3 0  9992","line2":"2 65504  53.1603 275.5729 0001159  87.0135 273.1000 15.34397382 40324","mean_motion":15.34397382,"eccentricity":0.0001159,"inclination_deg":53.1603,"raan_deg":275.5729,"arg_perigee_deg":87.0135,"mean_anomaly_deg":273.1,"bstar":0.00058246,"rev_number":4032,"period_min":93.847918205064,"perigee_km":461.9181671802,"apogee_km":463.50387575157,"semimajor_km":6840.8480214659,"source":"CELESTRAK","updated_at":"2026-05-25T13:38:20.842059Z"}}